Terminal Aerodrome Forecast
Issued by NWS Boise, ID

Home | Current Version | Previous Version | Text Only | Print | Product List | Glossary On
Versions: 1 2 3 4 5 6 7 8 9 10 11 12 13
000
FTUS45 KBOI 231720
TAFBOI
TAF
KBOI 231720Z 2318/2418 31013G17KT P6SM SKC
     FM240200 32010KT P6SM SKC
     FM240500 15010KT P6SM SKC=

USA.gov is the U.S. government's official web portal to all federal, state and local government web resources and services.